Hourly Data Report for May 28, 2021

MANIWAKI AIRPORT
QUEBEC
Current Station Operator: ECCC - MSC

46°16'29.000" N
75°59'31.000" W
199.70 m
7034482
71721
WMJ

Download Data

Hourly Data (May 2021)
Hourly Data Report for May 28, 2021
TIME
LST
Temp Definition
°C
Dew Point Definition
°C
Rel Hum Definition
%
Precip. Amount Definition
mm

Wind Dir Definition
10's deg

Wind Spd Definition
km/h
Visibility Definition
km
Stn Press Definition
kPa
Hmdx Definition


Wind Chill Definition


Weather Definition


00:00 -0.1 -3.0 81 0.0 36 9   99.93   -3 LegendNANA
01:00 -0.3 -3.8 77 0.0 36 8   99.91   -3 LegendNANA
02:00 -0.3 -3.6 78 0.0 34 9   100.00   -3 LegendNANA
03:00 -1.1 -4.8 76 0.0 31 5   100.00   -3 LegendNANA
04:00 -0.6 -4.8 73 0.0 35 10   99.95   -4 LegendNANA
05:00 -1.6 -4.4 81 0.0 2 1   100.04   -2 LegendNANA
06:00 0.2 -3.9 74 0.0 34 3   100.06     LegendNANA
07:00 1.8 -4.7 62 0.0 1 8   100.10     LegendNANA
08:00 3.1 -5.9 52 0.0 36 14   100.07     LegendNANA
09:00 4.7 -5.7 47 0.0 36 11   100.02     LegendNANA
10:00 6.9 -5.9 40 0.0 35 11   99.98     LegendNANA
11:00 7.7 -7.0 34 0.0 35 12   99.97     LegendNANA
12:00 8.5 -7.2 32 0.0 1 14   99.87     LegendNANA
13:00 10.6 -5.7 31 0.0 13 4   99.84     LegendNANA
14:00 11.0 -8.6 24 0.0 36 12   99.71     LegendNANA
15:00 11.7 -7.1 26 0.0 36 15   99.64     LegendNANA
16:00 12.3 -7.7 24 0.0 2 12   99.61     LegendNANA
17:00 12.5 -6.7 25 0.0 2 16   99.58     LegendNANA
18:00 12.2 -7.0 25 0.0 1 16   99.57     LegendNANA
19:00 11.2 -5.4 31 0.0 2 9   99.57     LegendNANA
20:00 5.9 -1.4 60 0.0 34 2   99.61     LegendNANA
21:00 2.9 -1.4 73 0.0   0   99.65     LegendNANA
22:00 2.3 -1.9 74 0.0 36 5   99.68     LegendNANA
23:00 2.7 -1.7 73 0.0 1 6   99.67     LegendNANA

Notes on Data Quality.

Legend

  • E = Estimated
  • M = Missing
  • NA = Not Available*
  • [empty] = Indicates an unobserved value
Date modified: